GW1734 Weather Reports


time (UTC)temp
C
wind
direction
speed
KPH
gust
KPH
rain 1hr
cm
rain 24hr
cm
rain mn
cm
humidity
%
barometer
mb
20260503213152 31 304 0.0 0.0 0.00 0.00 0.00 36 1009.5
20260503212649 31 277 0.0 0.0 0.00 0.00 0.00 38 1009.4
20260503212146 31 266 0.0 0.0 0.00 0.00 0.00 34 1009.4
20260503211644 31 123 0.0 0.0 0.00 0.00 0.00 36 1009.5
20260503211139 31 126 0.0 0.0 0.00 0.00 0.00 33 1009.6
20260503210636 31 181 0.0 0.0 0.00 0.00 0.00 33 1009.6
20260503210132 31 272 0.0 0.0 0.00 0.00 0.00 33 1009.8
20260503205628 30 293 0.0 0.0 0.00 0.00 0.00 34 1009.7
20260503205125 31 2 0.0 0.0 0.00 0.00 0.00 38 1009.8
20260503204621 31 264 0.0 0.0 0.00 0.00 0.00 36 1009.9
20260503204119 30 280 0.0 0.0 0.00 0.00 0.00 34 1010.0
20260503203616 30 336 0.0 0.0 0.00 0.00 0.00 35 1010.1
20260503203113 30 84 0.0 0.0 0.00 0.00 0.00 36 1010.0
20260503202611 30 61 0.0 0.0 0.00 0.00 0.00 36 1010.2
20260503202108 30 73 0.0 0.0 0.00 0.00 0.00 37 1010.2
20260503201606 30 276 0.0 0.0 0.00 0.00 0.00 38 1010.1
20260503201103 30 104 1.6 3.2 0.00 0.00 0.00 36 1010.4
20260503200600 30 345 0.0 0.0 0.00 0.00 0.00 45 1010.4
20260503200056 30 95 0.0 0.0 0.00 0.00 0.00 33 1010.4
20260503195553 30 135 0.0 1.6 0.00 0.00 0.00 37 1010.6
20260503195050 30 279 0.0 0.0 0.00 0.00 0.00 36 1010.7
20260503194547 30 243 0.0 0.0 0.00 0.00 0.00 40 1010.6
20260503194047 29 288 0.0 0.0 0.00 0.00 0.00 38 1010.9
20260503193544 29 105 0.0 0.0 0.00 0.00 0.00 39 1010.8
20260503193039 30 31 0.0 0.0 0.00 0.00 0.00 38 1010.6
20260503192536 30 272 0.0 0.0 0.00 0.00 0.00 38 1010.9
20260503192031 29 101 0.0 1.6 0.00 0.00 0.00 42 1010.9
20260503191528 29 21 0.0 0.0 0.00 0.00 0.00 42 1010.5
20260503191025 29 295 0.0 0.0 0.00 0.00 0.00 40 1011.0
20260503190522 28 71 0.0 0.0 0.00 0.00 0.00 39 1010.9
20260503190019 28 26 0.0 0.0 0.00 0.00 0.00 41 1011.1
20260503185515 28 63 0.0 0.0 0.00 0.00 0.00 43 1011.0
20260503185015 29 62 0.0 4.8 0.00 0.00 0.00 44 1011.2
20260503184512 28 254 0.0 0.0 0.00 0.00 0.00 45 1011.0
20260503184008 28 68 0.0 0.0 0.00 0.00 0.00 44 1011.0
20260503183505 28 256 0.0 0.0 0.00 0.00 0.00 46 1011.1
20260503183002 28 339 0.0 0.0 0.00 0.00 0.00 47 1011.1
20260503182500 28 306 0.0 0.0 0.00 0.00 0.00 47 1011.2
20260503181958 28 264 0.0 0.0 0.00 0.00 0.00 43 1011.4
20260503181455 28 229 0.0 0.0 0.00 0.00 0.00 42 1011.2
20260503180950 27 259 0.0 0.0 0.00 0.00 0.00 42 1011.2
20260503180449 27 238 0.0 0.0 0.00 0.00 0.00 47 1011.4
20260503175945 27 275 0.0 0.0 0.00 0.00 0.00 49 1011.4
20260503175444 27 268 0.0 0.0 0.00 0.00 0.00 47 1011.3
20260503174939 27 261 0.0 0.0 0.00 0.00 0.00 51 1011.2
20260503174437 26 314 0.0 0.0 0.00 0.00 0.00 50 1011.2
20260503173932 26 305 0.0 0.0 0.00 0.00 0.00 48 1011.2
20260503173428 26 314 0.0 0.0 0.00 0.00 0.00 52 1011.5
20260503172925 26 36 0.0 0.0 0.00 0.00 0.00 49 1011.5
20260503172423 26 298 0.0 0.0 0.00 0.00 0.00 53 1011.4
20260503171919 26 18 0.0 0.0 0.00 0.00 0.00 53 1011.5
20260503171416 25 319 0.0 0.0 0.00 0.00 0.00 53 1011.8
20260503170913 25 338 0.0 0.0 0.00 0.00 0.00 57 1011.9
20260503170409 25 346 0.0 0.0 0.00 0.00 0.00 52 1011.8
20260503150802 18 343 0.0 0.0 0.00 0.00 0.00 83 1012.1
20260503150257 17 317 0.0 0.0 0.00 0.00 0.00 93 1012.3
20260503140222 11 282 0.0 0.0 0.00 0.00 0.00 99 1012.4
20260503131152 8 295 0.0 0.0 0.00 0.00 0.00 99 1012.2
20260503130649 8 295 0.0 0.0 0.00 0.00 0.00 99 1012.1
20260503130147 8 295 0.0 0.0 0.00 0.00 0.00 99 1012.3
20260503120112 8 292 0.0 0.0 0.00 0.00 0.00 99 1012.3
20260503110539 8 300 0.0 0.0 0.00 0.00 0.00 99 1012.7
20260503090426 9 295 0.0 0.0 0.00 0.00 0.00 99 1012.9
20260503081353 10 295 0.0 0.0 0.00 0.00 0.00 99 1012.8
20260503080849 10 295 0.0 0.0 0.00 0.00 0.00 99 1013.0
20260503080347 10 293 0.0 0.0 0.00 0.00 0.00 99 1013.1
20260503072823 11 290 0.0 0.0 0.00 0.00 0.00 99 1013.0
20260503072320 10 299 0.0 0.0 0.00 0.00 0.00 99 1013.1
20260503071816 11 299 0.0 0.0 0.00 0.00 0.00 99 1012.9
20260503071314 11 299 0.0 0.0 0.00 0.00 0.00 99 1013.1
20260503070810 11 296 0.0 0.0 0.00 0.00 0.00 99 1013.0
20260503070308 11 292 0.0 0.0 0.00 0.00 0.00 99 1013.1
20260503060227 12 299 0.0 0.0 0.00 0.00 0.00 99 1013.0
20260503054714 12 298 0.0 0.0 0.00 0.00 0.00 98 1013.4
20260503054211 13 299 0.0 0.0 0.00 0.00 0.00 98 1013.3
20260503053709 13 277 0.0 0.0 0.00 0.00 0.00 98 1013.2
20260503053207 13 297 0.0 0.0 0.00 0.00 0.00 98 1013.0
20260503052703 13 298 0.0 0.0 0.00 0.00 0.00 98 1013.2
20260503052200 13 293 0.0 0.0 0.00 0.00 0.00 97 1013.2
20260503051655 13 305 0.0 0.0 0.00 0.00 0.00 97 1013.2
20260503051153 13 299 0.0 0.0 0.00 0.00 0.00 97 1013.3
20260503050649 13 288 0.0 0.0 0.00 0.00 0.00 96 1013.3
20260503050146 13 285 0.0 0.0 0.00 0.00 0.00 96 1013.3
20260503045643 13 286 0.0 0.0 0.00 0.00 0.00 95 1013.4
20260503045141 14 293 0.0 0.0 0.00 0.00 0.00 95 1013.5
20260503044637 13 293 0.0 0.0 0.00 0.00 0.00 94 1013.4
20260503044135 14 309 0.0 0.0 0.00 0.00 0.00 94 1013.3
20260503043631 14 291 0.0 0.0 0.00 0.00 0.00 93 1013.2
20260503043128 15 282 0.0 0.0 0.00 0.00 0.00 93 1013.3
20260503042625 15 255 0.0 0.0 0.00 0.00 0.00 93 1013.4
20260503042121 15 323 0.0 0.0 0.00 0.00 0.00 91 1013.4
20260503041617 15 272 0.0 0.0 0.00 0.00 0.00 91 1013.4
20260503041115 15 209 0.0 0.0 0.00 0.00 0.00 91 1013.3
20260503040612 15 3 0.0 0.0 0.00 0.00 0.00 90 1012.9
20260503040110 15 270 0.0 0.0 0.00 0.00 0.00 89 1013.3
20260503035606 16 315 0.0 0.0 0.00 0.00 0.00 89 1013.0
20260503035104 16 311 0.0 0.0 0.00 0.00 0.00 87 1012.8
20260503034601 16 262 0.0 0.0 0.00 0.00 0.00 85 1012.7
20260503034058 17 262 0.0 0.0 0.00 0.00 0.00 83 1012.6
20260503033555 17 209 0.0 0.0 0.00 0.00 0.00 82 1012.5
20260503033053 17 342 0.0 0.0 0.00 0.00 0.00 83 1012.5
20260503032551 17 264 0.0 0.0 0.00 0.00 0.00 82 1012.6
20260503032049 17 77 0.0 0.0 0.00 0.00 0.00 83 1012.5
20260503031546 17 315 0.0 0.0 0.00 0.00 0.00 82 1012.5
20260503031044 17 68 0.0 0.0 0.00 0.00 0.00 82 1012.5
20260503030539 18 4 0.0 0.0 0.00 0.00 0.00 81 1012.5
20260503030037 18 300 0.0 0.0 0.00 0.00 0.00 81 1012.3
20260503025533 18 249 0.0 0.0 0.00 0.00 0.00 80 1012.3
20260503025032 18 283 0.0 0.0 0.00 0.00 0.00 82 1012.4
20260503024527 19 304 0.0 0.0 0.00 0.00 0.00 81 1012.2
20260503024025 20 295 0.0 0.0 0.00 0.00 0.00 80 1012.1
20260503023521 20 280 0.0 0.0 0.00 0.00 0.00 79 1012.0
20260503023019 20 294 0.0 0.0 0.00 0.00 0.00 78 1011.9
20260503022515 20 286 0.0 0.0 0.00 0.00 0.00 77 1011.4
20260503022009 21 286 0.0 0.0 0.00 0.00 0.00 77 1011.4
20260503021506 21 286 0.0 0.0 0.00 0.00 0.00 77 1011.3
20260503021003 21 285 0.0 0.0 0.00 0.00 0.00 78 1011.3
20260503020501 21 262 0.0 0.0 0.00 0.00 0.00 74 1011.4
20260503015957 21 262 0.0 0.0 0.00 0.00 0.00 72 1011.4
20260503015454 22 262 0.0 0.0 0.00 0.00 0.00 72 1011.2
20260503014950 22 256 0.0 0.0 0.00 0.00 0.00 68 1011.4
20260503014447 22 273 0.0 0.0 0.00 0.00 0.00 62 1011.2
20260503013945 23 291 0.0 0.0 0.00 0.00 0.00 63 1011.3
20260503013442 23 286 0.0 0.0 0.00 0.00 0.00 64 1011.2
20260503012939 22 282 0.0 0.0 0.00 0.00 0.00 64 1011.4
20260503012437 22 271 0.0 0.0 0.00 0.00 0.00 65 1011.2
20260503011933 22 285 0.0 0.0 0.00 0.00 0.00 63 1011.3
20260503011430 22 8 0.0 0.0 0.00 0.00 0.00 62 1011.3
20260503010927 22 294 0.0 0.0 0.00 0.00 0.00 62 1011.0
20260503010424 22 290 0.0 0.0 0.00 0.00 0.00 64 1011.3
20260503005921 23 14 0.0 0.0 0.00 0.00 0.00 62 1011.3
20260503005418 23 289 0.0 0.0 0.00 0.00 0.00 64 1011.2
20260503004915 23 298 0.0 0.0 0.00 0.00 0.00 61 1011.4
20260503004412 23 332 0.0 0.0 0.00 0.00 0.00 63 1011.4
20260503003909 23 5 0.0 0.0 0.00 0.00 0.00 63 1011.2
20260503003406 23 314 0.0 0.0 0.00 0.00 0.00 64 1011.4
20260503002903 23 291 0.0 0.0 0.00 0.00 0.00 63 1011.4
20260503002400 23 330 0.0 0.0 0.00 0.00 0.00 63 1011.2
20260503001856 22 329 1.6 8.0 0.00 0.00 0.00 60 1011.1
20260503001353 23 300 0.0 0.0 0.00 0.00 0.00 59 1011.3
20260503000851 23 310 0.0 0.0 0.00 0.00 0.00 59 1011.3
20260503000348 23 334 0.0 0.0 0.00 0.00 0.00 60 1011.6
20260502235845 23 343 0.0 0.0 0.00 0.00 0.00 61 1011.3
20260502235342 23 299 0.0 0.0 0.00 0.00 0.00 61 1011.6
20260502234838 23 294 0.0 0.0 0.00 0.00 0.00 62 1011.6
20260502234335 22 321 0.0 0.0 0.00 0.00 0.00 61 1011.8
20260502233832 23 324 0.0 1.6 0.00 0.00 0.00 58 1011.8
20260502233328 23 304 0.0 0.0 0.00 0.00 0.00 63 1011.9
20260502232825 23 314 0.0 0.0 0.00 0.00 0.00 62 1012.0
20260502232322 23 282 0.0 0.0 0.00 0.00 0.00 61 1012.2
20260502231818 23 347 0.0 0.0 0.00 0.00 0.00 60 1012.0
20260502231316 22 308 0.0 0.0 0.00 0.00 0.00 59 1012.0
20260502230814 22 283 0.0 0.0 0.00 0.00 0.00 62 1012.1
20260502230312 22 324 0.0 0.0 0.00 0.00 0.00 59 1012.0
20260502225808 22 304 0.0 0.0 0.00 0.00 0.00 62 1012.0
20260502225305 22 330 0.0 0.0 0.00 0.00 0.00 61 1012.1
20260502224802 22 332 4.8 9.7 0.00 0.00 0.00 58 1012.3
20260502224258 22 298 0.0 0.0 0.00 0.00 0.00 61 1012.5
20260502223755 22 329 0.0 0.0 0.00 0.00 0.00 60 1012.5
20260502223254 22 323 0.0 1.6 0.00 0.00 0.00 62 1012.5
20260502222751 22 296 0.0 1.6 0.00 0.00 0.00 60 1012.8
20260502222248 22 294 0.0 0.0 0.00 0.00 0.00 63 1012.7
20260502221744 22 243 0.0 1.6 0.00 0.00 0.00 64 1012.7
20260502221240 22 264 0.0 0.0 0.00 0.00 0.00 65 1013.1
20260502220737 22 312 0.0 1.6 0.00 0.00 0.00 64 1013.1
20260502220233 21 339 0.0 0.0 0.00 0.00 0.00 64 1013.2
20260502215730 21 322 0.0 0.0 0.00 0.00 0.00 65 1013.2
20260502215227 22 50 0.0 0.0 0.00 0.00 0.00 65 1013.5
20260502214724 21 319 0.0 0.0 0.00 0.00 0.00 64 1013.5
20260502214221 21 262 0.0 0.0 0.00 0.00 0.00 64 1013.4
20260502213719 21 354 0.0 0.0 0.00 0.00 0.00 65 1013.4